Location: P�rn�nmaa
(61.1833°N, 23.0000°E)
Time: 19:53:56
(UTC+00:00)

Cosmos 1939 Rocket - Pass Details

Date: 08 December 2019
Orbit: 532 x 585 km, 97.4° (Epoch: 17 January)

Event Time Altitude Azimuth Distance (km) Brightness Sun altitude
Exits shadow 15:05:23 17° 59° (ENE) 1,460 4.3 -11.3°
Maximum altitude 15:05:54 17° 49° (NE) 1,440 4.3 -11.4°
Drops below altitude 10° 15:08:30 10° 8° (N) 1,835 5.2 -11.7°
Sets 15:11:11 0° 348° (NNW) 2,723 6.2 -12.0°
